This demonstration page uses our WeatherBlox Daily Observations layout. Learn more.

Left ArrowRight Arrow

39.01783, -85.05884

Hourly Observations for May 25, 2018

Temp ( °F °C ) Dew Point ( °F °C ) Humidity (%) Winds ( mph kmh ) Pressure ( in mb ) Visibility ( mi km ) Precip ( " mm )
12:52 am 00:52 Clear 66 18.9 55 12.8 68 68 Calm 30.06 1018 10 16 0.00 0.00
1:52 am 01:52 Clear 64 17.8 55 12.8 73 73 Calm 30.05 1018 10 16 0.00 0.00
2:52 am 02:52 Clear 60 15.6 55 12.8 84 84 Calm 30.03 1017 10 16 0.00 0.00
3:52 am 03:52 Clear 61 16.1 54 12.2 78 78 Calm 30.02 1017 10 16 0.00 0.00
4:52 am 04:52 Clear 63 17.2 56 13.3 78 78 Calm 30.02 1017 10 16 0.00 0.00
5:52 am 05:52 Mostly Clear 59 15 56 13.3 90 90 Calm 30.01 1016 10 16 0.00 0.00
6:52 am 06:52 Mostly Sunny 60 15.6 56 13.3 86 86 Calm 30.01 1016 10 16 0.00 0.00
7:52 am 07:52 Sunny 68 20 59 15 73 73 Calm 30.01 1016 10 16 0.00 0.00
8:52 am 08:52 Sunny 73 22.8 58 14.4 59 59 Calm 30.00 1016 10 16 0.00 0.00
9:52 am 09:52 Sunny 77 25 57 13.9 50 50 ESE 3 6 29.99 1016 10 16 0.00 0.00
10:52 am 10:52 Sunny 79 26.1 59 15 50 50 Calm 29.98 1015 10 16 0.00 0.00
11:52 am 11:52 Mostly Sunny 81 27.2 58 14.4 45 45 SW 7 11 29.98 1015 10 16 0.00 0.00
12:52 pm 12:52 Mostly Sunny 83 28.3 56 13.3 40 40 Calm 29.97 1015 10 16 0.00 0.00
1:52 pm 13:52 Mostly Sunny 84 28.9 58 14.4 41 41 VRB 5 7 29.96 1014 10 16 0.00 0.00
2:52 pm 14:52 Mostly Sunny 83 28.3 57 13.9 41 41 VRB 5 7 29.94 1014 10 16 0.00 0.00
3:52 pm 15:52 Mostly Sunny 84 28.9 55 12.8 37 37 SW 3 6 29.91 1013 10 16 0.00 0.00
4:52 pm 16:52 Mostly Sunny 84 28.9 55 12.8 37 37 SSW 8 13 29.88 1012 10 16 0.00 0.00
5:52 pm 17:52 Mostly Sunny 84 28.9 58 14.4 41 41 SW 6 9 29.86 1011 10 16 0.00 0.00
6:52 pm 18:52 Mostly Sunny 83 28.3 58 14.4 43 43 SW 7 11 29.85 1011 10 16 0.00 0.00
7:52 pm 19:52 Mostly Sunny 81 27.2 59 15 47 47 SW 3 6 29.86 1011 10 16 0.00 0.00
8:52 pm 20:52 Mostly Cloudy 76 24.4 60 15.6 58 58 S 3 6 29.86 1011 10 16 0.00 0.00
9:52 pm 21:52 Mostly Cloudy 74 23.3 60 15.6 62 62 S 5 7 29.84 1010 10 16 0.00 0.00
10:52 pm 22:52 Mostly Cloudy 72 22.2 59 15 64 64 S 5 7 29.85 1011 10 16 0.00 0.00
11:52 pm 23:52 Mostly Cloudy 69 20.6 61 16.1 76 76 S 5 7 29.85 1011 10 16 0.00 0.00

Powered by AerisWeather